Regional Weather Roundup
Issued by NWS Sioux Falls, SD

Home | Current Version | Previous Version | Text Only | Print | Product List | Glossary Off
Versions: 1 2 3 4 5 6 7 8 9 10 11 12 13 14 15 16 17 18 19 20 21 22 23 24 25 26 27 28 29 30 31 32 33 34 35 36 37 38 39 40 41 42 43 44 45 46 47 48 49 50

000
ASUS43 KFSD 241802
RWRFSD

WEATHER ROUNDUP FOR SE SOUTH DAKOTA/SW MINNESOTA/NW IOWA
NATIONAL WEATHER SERVICE SIOUX FALLS SD
100 PM CDT SUN SEP 24 2017

NOTE: "FAIR" INDICATES FEW OR NO CLOUDS BELOW 12,000 FEET WITH NO
SIGNIFICANT WEATHER AND OR OBSTRUCTIONS TO VISIBILITY.


SDZ038>040-050-052>070-241900-
SOUTHEAST SOUTH DAKOTA

CITY           SKY/WX    TMP DP  RH WIND       PRES   REMARKS
BROOKINGS      CLOUDY    72  66  81 SW13      29.88S
CHAMBERLAIN    RAIN      55  55 100 NW15      29.98R
6HR MIN TEMP:  54; 6HR MAX TEMP:  56; 6HR PCP:  0.01;

HURON          LGT RAIN  56  56 100 NW13      29.91S
6HR MIN TEMP:  55; 6HR MAX TEMP:  57; 6HR PCP:  0.84;

MADISON        MOCLDY    64  64 100 W9        29.89S
MITCHELL       LGT RAIN  58  56  93 W9        29.94R
6HR MIN TEMP:  56; 6HR MAX TEMP:  59; 6HR PCP:  0.07;

SIOUX FALLS    CLOUDY    80  68  66 S14G24    29.86F
6HR MIN TEMP:  69; 6HR MAX TEMP:  81;

WINNER         CLOUDY    54  51  90 NW15      29.99S
YANKTON        CLOUDY    66  59  78 W13       29.91R
$$

MNZ071-072-080-081-089-090-097-098-241900-
SOUTHWEST MINNESOTA

CITY           SKY/WX    TMP DP  RH WIND       PRES   REMARKS
FAIRMONT       SUNNY     87  63  44 S15G22    29.92F
JACKSON        SUNNY     86  61  42 S16G22    29.92F
LUVERNE        MOSUNNY   81  61  50 S21G29    29.88S
MARSHALL       CLOUDY    82  67  60 SW14      29.85S
6HR MIN TEMP:  57; 6HR MAX TEMP:  84; 6HR PCP:  0.04;

MONTEVIDEO     PTSUNNY   82  70  65 W14G20    29.84S
PIPESTONE      MOSUNNY   81  66  61 SW16G24   29.88S
REDWOOD FALLS  MOSUNNY   87  63  44 S20G30    29.86F
TRACY          MOSUNNY   85  66  52 S16G28    29.87S
WORTHINGTON    CLOUDY    84  63  49 S20G26    29.90F
$$

IAZ001>003-012>014-020>022-031-032-NEZ013-014-SDZ071-241900-
NORTHWEST IOWA

CITY           SKY/WX    TMP DP  RH WIND       PRES   REMARKS
DENISON        MOSUNNY   84  66  54 S12G18    29.94S
ESTHERVILLE    SUNNY     85  64  49 S17G25    29.91F
LE MARS        MOSUNNY   86  66  51 SW16G28   29.88S
ORANGE CITY    MOSUNNY   86  68  54 S18G30    29.89F
SHELDON        CLOUDY    84  64  51 S18G29    29.88S
SIOUX CITY     MOSUNNY   86  66  51 S18G28    29.88F
6HR MIN TEMP:  63; 6HR MAX TEMP:  86;

SPENCER        MOSUNNY   88  63  43 S15G29    29.91F
6HR MIN TEMP:  66; 6HR MAX TEMP:  88;

STORM LAKE     MOSUNNY   88  64  45 S18G25    29.92F
$$

ABBREVIATIONS USED IN REMARKS
   TC - TEMPERATURE IN CELSIUS
  WCI - WIND CHILL INDEX
   HX - HEAT INDEX
  VSB - VISIBILITY





USA.gov is the U.S. government's official web portal to all federal, state and local government web resources and services.